CW0451 Weather Reports


Display with metric or nautical units.
time (UTC)temp
F
wind
direction
speed
MPH
gust
MPH
rain 1hr
in
rain 24hr
in
rain mn
in
humidity
%
barometer
mb
20260904011104 69 82 0.0 0.0 0.00 0.37 0.37 94 1011.5
20260904010103 69 82 0.0 0.0 0.00 0.37 0.37 94 1011.5
20260904005104 69 82 0.0 1.0 0.00 0.37 0.37 94 1011.3
20260904004103 70 82 0.0 1.0 0.00 0.37 0.37 93 1011.2
20260904003104 70 82 0.0 0.0 0.00 0.37 0.37 93 1011.1
20260904002103 70 82 0.0 1.0 0.00 0.37 0.37 93 1010.9
20260904001103 71 82 0.0 2.0 0.00 0.37 0.37 93 1010.8
20260904000103 71 69 1.0 1.0 0.00 0.37 0.37 93 1010.6
20260903235104 71 68 0.0 1.0 0.00 0.37 0.37 92 1010.8
20260903234103 72 68 0.0 2.0 0.00 0.37 0.37 92 1010.7
20260903233104 72 68 1.0 2.0 0.00 0.37 0.37 91 1010.6
20260903232103 73 111 1.0 2.0 0.00 0.37 0.37 90 1010.7
20260903231105 73 111 0.0 2.0 0.00 0.37 0.37 90 1010.2
20260903230124 74 111 1.0 2.0 0.00 0.37 0.37 90 1010.2
20260903225104 74 111 1.0 3.0 0.00 0.37 0.37 89 1010.5
20260903224124 74 99 1.0 4.0 0.00 0.37 0.37 88 1010.4
20260903223104 75 125 2.0 3.0 0.00 0.37 0.37 88 1010.6
20260903222103 76 90 0.0 3.0 0.00 0.37 0.37 85 1010.9
20260903221104 76 129 1.0 4.0 0.00 0.37 0.37 84 1010.8
20260903215125 76 74 2.0 5.0 0.00 0.37 0.37 84 1010.6
20260903214104 76 100 3.0 7.0 0.00 0.37 0.37 84 1010.5
20260903213103 76 142 2.0 6.0 0.00 0.37 0.37 85 1010.5
20260903212104 76 143 2.0 9.0 0.00 0.37 0.37 86 1010.7
20260903211103 76 103 3.0 6.0 0.00 0.37 0.37 85 1010.6
20260903210104 77 69 4.0 9.0 0.00 0.37 0.37 83 1010.7
20260903205103 78 90 5.0 9.0 0.00 0.37 0.37 81 1010.5
20260903204104 79 101 5.0 9.0 0.00 0.37 0.37 81 1010.6
20260903203124 78 57 2.0 8.0 0.00 0.37 0.37 82 1010.6
20260903202104 79 356 4.0 9.0 0.00 0.37 0.37 80 1010.8
20260903201103 80 246 1.0 7.0 0.00 0.37 0.37 75 1010.6
20260903200104 82 222 4.0 8.0 0.00 0.37 0.37 73 1010.6
20260903195124 82 201 6.0 10.0 0.00 0.37 0.37 75 1010.7
20260903194124 81 240 3.0 7.0 0.00 0.37 0.37 79 1010.8
20260903193103 80 224 3.0 6.0 0.00 0.37 0.37 79 1010.9
20260903192103 79 259 2.0 7.0 0.00 0.37 0.37 78 1011.2
20260903191104 80 248 3.0 6.0 0.00 0.37 0.37 77 1011.1
20260903190103 80 185 4.0 7.0 0.00 0.37 0.37 77 1011.2
20260903185104 80 217 4.0 7.0 0.00 0.37 0.37 77 1011.3
20260903184103 81 197 3.0 10.0 0.00 0.37 0.37 77 1011.4
20260903183104 81 184 4.0 6.0 0.00 0.37 0.37 77 1011.4
20260903182103 80 217 2.0 5.0 0.00 0.37 0.37 77 1011.6
20260903181104 82 239 3.0 6.0 0.00 0.37 0.37 75 1011.5
20260903175125 81 243 4.0 10.0 0.00 0.37 0.37 77 1011.7
20260903174104 80 248 3.0 11.0 0.00 0.37 0.37 76 1011.7
20260903173103 80 213 4.0 10.0 0.00 0.37 0.37 77 1011.8
20260903172125 80 279 3.0 9.0 0.00 0.37 0.37 78 1012.0
20260903171103 80 269 3.0 8.0 0.00 0.37 0.37 77 1012.1
20260903170104 80 332 1.0 9.0 0.00 0.37 0.37 78 1011.9
20260903165124 79 210 5.0 11.0 0.00 0.37 0.37 80 1011.9
20260903164104 79 213 3.0 8.0 0.00 0.37 0.37 84 1011.9
20260903163103 78 247 3.0 5.0 0.00 0.37 0.37 85 1011.8
20260903162104 77 251 1.0 6.0 0.00 0.37 0.37 84 1011.9
20260903160104 75 243 3.0 7.0 0.00 0.37 0.37 88 1012.1
20260903155103 75 242 2.0 9.0 0.00 0.37 0.37 88 1012.3
20260903154103 75 261 2.0 4.0 0.00 0.37 0.37 88 1012.4
20260903153124 75 271 1.0 8.0 0.00 0.37 0.37 88 1012.5
20260903152104 75 250 4.0 10.0 0.00 0.37 0.37 89 1012.5
20260903151103 74 217 3.0 7.0 0.00 0.37 0.37 90 1012.6
20260903150104 73 250 5.0 8.0 0.00 0.37 0.37 92 1012.9
20260903145103 72 251 2.0 7.0 0.00 0.37 0.37 93 1012.9
20260903144104 72 259 2.0 10.0 0.00 0.37 0.37 93 1013.1
20260903143103 72 255 3.0 8.0 0.00 0.37 0.37 94 1013.3
20260903142103 72 256 1.0 7.0 0.00 0.37 0.37 94 1013.4
20260903141103 71 227 3.0 6.0 0.00 0.37 0.37 95 1013.4
20260903140104 71 248 5.0 9.0 0.00 0.37 0.37 95 1013.7
20260903135124 71 247 3.0 8.0 0.00 0.37 0.37 95 1013.8
20260903134103 71 263 3.0 7.0 0.00 0.37 0.37 96 1013.7
20260903133104 70 235 3.0 6.0 0.00 0.37 0.37 96 1013.5
20260903132103 70 226 2.0 8.0 0.00 0.37 0.37 96 1013.6
20260903131104 70 221 2.0 7.0 0.00 0.37 0.37 97 1013.7
20260903125104 69 199 4.0 6.0 0.00 0.37 0.37 97 1013.6
20260903124103 68 197 2.0 6.0 0.00 0.37 0.37 97 1013.7
20260903123103 68 327 5.0 8.0 0.00 0.37 0.37 96 1014.0
20260903122103 68 221 1.0 6.0 0.00 0.37 0.37 96 1014.1
20260903121104 68 261 1.0 9.0 0.00 0.37 0.37 96 1014.2
20260903120124 67 183 5.0 8.0 0.00 0.37 0.37 96 1014.3
20260903115104 67 271 1.0 6.0 0.04 0.37 0.37 96 1014.4
20260903114103 67 199 3.0 13.0 0.04 0.37 0.37 96 1014.4
20260903113125 66 185 6.0 10.0 0.03 0.36 0.36 96 1014.5
20260903112103 66 180 5.0 9.0 0.02 0.35 0.35 96 1014.6
20260903111103 66 196 5.0 10.0 0.02 0.35 0.35 96 1014.6
20260903105103 65 175 4.0 10.0 0.01 0.32 0.32 96 1014.4
20260903104103 65 168 6.0 10.0 0.01 0.32 0.32 96 1014.3
20260903103104 64 158 7.0 11.0 0.01 0.32 0.32 96 1014.2
20260903102104 64 163 6.0 9.0 0.01 0.32 0.32 96 1014.1
20260903101103 64 165 5.0 9.0 0.01 0.32 0.32 96 1014.2
20260903100104 63 152 5.0 7.0 0.00 0.31 0.31 96 1014.3
20260903095125 63 145 2.0 7.0 0.25 0.30 0.30 96 1014.5
20260903094103 63 141 4.0 7.0 0.25 0.30 0.30 96 1014.6
20260903093103 63 190 2.0 6.0 0.19 0.24 0.24 96 1014.7
20260903092104 63 132 1.0 2.0 0.02 0.07 0.07 95 1014.5
20260903091103 62 132 0.0 1.0 0.00 0.05 0.05 95 1014.6
20260903090104 62 129 0.0 2.0 0.00 0.05 0.05 95 1014.8
20260903085124 62 134 1.0 3.0 0.04 0.04 0.04 95 1014.6
20260903084104 62 153 0.0 4.0 0.03 0.03 0.03 95 1014.9
20260903083103 62 149 0.0 4.0 0.01 0.02 0.01 94 1015.1
20260903082104 62 157 2.0 5.0 0.00 0.01 0.00 94 1015.1
20260903081124 62 142 2.0 4.0 0.00 0.01 0.00 94 1015.2
20260903080104 62 157 1.0 4.0 0.00 0.01 0.00 94 1015.4
20260903075103 62 134 1.0 3.0 0.00 0.01 0.00 93 1015.4
20260903074103 62 135 2.0 4.0 0.00 0.01 0.00 93 1015.6
20260903073103 62 135 1.0 5.0 0.00 0.01 0.00 93 1015.7
20260903072103 62 158 2.0 4.0 0.00 0.01 0.00 93 1016.0
20260903071104 62 163 1.0 2.0 0.00 0.01 0.00 93 1016.1
20260903070103 62 178 0.0 3.0 0.00 0.01 0.00 92 1016.3
20260903065103 61 119 1.0 3.0 0.00 0.01 0.00 92 1016.4
20260903064104 61 173 1.0 3.0 0.00 0.01 0.00 94 1016.7
20260903063104 61 93 0.0 1.0 0.00 0.01 0.00 93 1016.7
20260903062103 61 93 1.0 3.0 0.00 0.01 0.00 94 1016.8
20260903061125 61 119 0.0 2.0 0.00 0.01 0.00 94 1016.9
20260903060103 61 127 0.0 1.0 0.00 0.01 0.00 94 1017.1
20260903055104 61 271 0.0 0.0 0.00 0.01 0.00 94 1017.3
20260903054103 61 270 0.0 2.0 0.00 0.01 0.00 94 1017.5
20260903053104 60 271 0.0 1.0 0.00 0.01 0.00 94 1017.6
20260903052103 60 270 0.0 1.0 0.00 0.01 0.00 95 1017.7
20260903051104 60 271 0.0 2.0 0.00 0.01 0.00 94 1017.8
20260903045104 60 270 1.0 2.0 0.00 0.01 0.00 94 1018.2
20260903044103 60 170 0.0 0.0 0.00 0.01 0.00 94 1018.1
20260903043103 60 170 0.0 1.0 0.00 0.01 0.00 95 1017.9
20260903042103 60 170 1.0 3.0 0.00 0.01 0.00 95 1017.8
20260903041104 59 166 2.0 6.0 0.00 0.01 0.00 95 1017.8
20260903040103 59 116 2.0 3.0 0.00 0.01 0.01 95 1017.8
20260903035104 59 40 0.0 0.0 0.00 0.01 0.01 94 1018.0
20260903034103 59 40 0.0 0.0 0.00 0.01 0.01 94 1018.3
20260903033103 59 40 0.0 0.0 0.00 0.01 0.01 93 1018.4
20260903032104 59 40 0.0 0.0 0.00 0.01 0.01 94 1018.5
20260903031124 59 40 0.0 0.0 0.00 0.01 0.01 94 1018.5
20260903030104 59 86 0.0 0.0 0.00 0.01 0.01 94 1018.6
20260903025103 59 86 0.0 1.0 0.00 0.01 0.01 94 1018.7
20260903024104 59 5 0.0 1.0 0.00 0.01 0.01 93 1018.8
20260903023103 59 5 1.0 3.0 0.00 0.01 0.01 93 1018.9
20260903022104 59 5 2.0 3.0 0.00 0.01 0.01 93 1018.8
20260903021125 60 148 0.0 3.0 0.00 0.01 0.01 93 1018.6
20260903015104 60 187 2.0 6.0 0.00 0.01 0.01 92 1018.8
20260903014125 60 167 2.0 4.0 0.00 0.01 0.01 91 1018.9
20260903013124 61 152 0.0 1.0 0.00 0.01 0.01 92 1019.0
20260903012103 61 155 2.0 5.0 0.00 0.01 0.01 90 1019.0